Terminal Aerodrome Forecast
Issued by NWS Omaha/Valley, NE

Home | Current Version | Previous Version | Text Only | Print | Product List | Glossary Off
Versions: 1 2 3 4 5 6 7 8 9 10 11 12 13 14 15 16 17 18 19 20 21 22 23 24 25 26 27 28 29 30 31 32 33 34 35 36 37 38 39 40 41 42 43 44 45 46

000
FTUS43 KOAX 141348 AAA
TAFOFK
TAF AMD
KOFK 141348Z 1414/1512 08006KT 4SM BR OVC004
     FM141600 21010KT 5SM BR OVC007
     FM142000 27012G20KT 5SM BR VCSH OVC009
     FM150000 32024G33KT P6SM OVC020
     FM150700 32015G25KT P6SM SCT150=

USA.gov is the U.S. government's official web portal to all federal, state and local government web resources and services.